Whiteman AFB, MO

7:03 AM CST on November 13, 2019 (GMT -0600)
Whiteman Air Force Base

Weather History for KSZL - May, 2019

Change the Weather History Date:

Monday, May 27, 2019

  Actual Average Record
Temperature  
Mean Temperature 75 °F -  
Max Temperature 84 °F 75 °F 91 °F (2012)
Min Temperature 67 °F 56 °F 50 °F (1999)
Cooling Degree Days 10    
Growing Degree Days 25 (Base 50)    
Moisture  
Dew Point 70 °F    
Average Humidity 88    
Maximum Humidity 100    
Minimum Humidity 61    
Precipitation  
Precipitation 0.06 in - - ()
Sea Level Pressure  
Sea Level Pressure 29.78 in    
Wind  
Wind Speed 10 mph (South)    
Max Wind Speed 23 mph    
Max Gust Speed 31 mph    
Visibility 10 miles    
Events Rain    
Averages and records for this station are not official NWS values.
T = Trace of Precipitation, MM = Missing Value Source: NWS Daily Summary

Daily Weather History Graph

Daily Weather History Graph

Search for Another Location

Airport or City:

Astronomy

May. 27, 2019 Rise Set
Actual Time 5:53 AM CDT 8:29 PM CDT
Civil Twilight 5:22 AM CDT 9:00 PM CDT
Nautical Twilight 4:44 AM CDT 9:39 PM CDT
Astronomical Twilight 4:01 AM CDT 10:22 PM CDT
Moon 2:32 AM CDT (5/27) 1:48 PM CDT (5/27)
Length of Visible Light 15h 37m
Length of Day
14h 35m
Last Quarter, 40% of the Moon is Illuminated
May 27
Last Quarter
Jun 3
New
Jun 10
First Quarter
Jun 17
Full
Jun 25
Last Quarter

Hourly Weather History & Observations

Time (CDT) Temp. Heat Index Dew Point Humidity Pressure Visibility Wind Dir Wind Speed Gust Speed Precip Events Conditions
12:56 AM 69.4 °F - 69.1 °F 99% 29.92 in 10.0 mi SE 3.5 mph - N/A   Partly Cloudy
1:56 AM 68.9 °F - 68.9 °F 100% 29.90 in 10.0 mi SE 3.5 mph - N/A   Partly Cloudy
2:56 AM 69.6 °F - 69.6 °F 100% 29.88 in 10.0 mi SSE 4.6 mph - N/A   Scattered Clouds
3:56 AM 70.7 °F - 70.3 °F 99% 29.86 in 10.0 mi SSE 8.1 mph - N/A   Clear
4:56 AM 70.9 °F - 70.9 °F 100% 29.88 in 10.0 mi SSW 10.4 mph - N/A   Scattered Clouds
5:56 AM 70.0 °F - 70.0 °F 100% 29.87 in 10.0 mi South 8.1 mph - N/A   Clear
6:56 AM 70.9 °F - 70.9 °F 100% 29.88 in 10.0 mi South 8.1 mph - N/A   Partly Cloudy
7:56 AM 72.0 °F - 70.7 °F 96% 29.79 in 10.0 mi SSE 10.4 mph 17.3 mph N/A   Clear
8:56 AM 71.8 °F - 70.9 °F 97% 29.81 in 10.0 mi South 17.3 mph 26.5 mph N/A   Scattered Clouds
9:50 AM 69.8 °F - 69.8 °F 100% 29.83 in 6.0 mi South 23.0 mph 31.1 mph N/A Rain Light Rain
9:56 AM 69.4 °F - 68.5 °F 97% 29.81 in 4.0 mi South 23.0 mph 31.1 mph N/A Rain Rain
10:42 AM 68.0 °F - 68.0 °F 100% 29.81 in 10.0 mi SSW 15.0 mph - N/A   Scattered Clouds
10:56 AM 67.6 °F - 67.6 °F 100% 29.83 in 10.0 mi SSW 16.1 mph 24.2 mph 0.06 in   Scattered Clouds
11:56 AM 71.2 °F - 68.7 °F 92% 29.80 in 10.0 mi South 15.0 mph - N/A   Scattered Clouds
12:56 PM 75.7 °F - 69.4 °F 81% 29.77 in 10.0 mi South 15.0 mph 20.7 mph N/A   Scattered Clouds
1:56 PM 79.5 °F - 70.9 °F 75% 29.75 in 10.0 mi South 18.4 mph 28.8 mph N/A   Partly Cloudy
2:56 PM 82.8 °F 86.9 °F 70.2 °F 66% 29.73 in 10.0 mi SSW 18.4 mph 25.3 mph N/A   Scattered Clouds
3:56 PM 83.3 °F 87.4 °F 70.2 °F 64% 29.71 in 10.0 mi SSW 13.8 mph 21.9 mph N/A   Mostly Cloudy
4:56 PM 83.8 °F 87.5 °F 68.9 °F 61% 29.70 in 10.0 mi SSW 16.1 mph 21.9 mph N/A   Scattered Clouds
5:56 PM 81.9 °F 85.2 °F 69.3 °F 65% 29.70 in 10.0 mi SSW 15.0 mph - N/A   Mostly Cloudy
6:56 PM 81.5 °F 85.5 °F 70.7 °F 70% 29.69 in 10.0 mi SSW 10.4 mph - N/A   Scattered Clouds
7:56 PM 79.3 °F - 70.7 °F 75% 29.69 in 10.0 mi SSW 11.5 mph - N/A   Mostly Cloudy
8:56 PM 75.9 °F - 71.1 °F 85% 29.69 in 10.0 mi SSW 5.8 mph - N/A   Clear
9:56 PM 74.5 °F - 70.7 °F 88% 29.69 in 10.0 mi SSW 8.1 mph - N/A   Clear
10:22 PM 73.4 °F - 71.6 °F 94% 29.70 in 10.0 mi SSW 5.8 mph - N/A   Light Drizzle
10:25 PM 73.4 °F - 69.8 °F 88% 29.70 in 10.0 mi SSW 5.8 mph - N/A   Partly Cloudy
10:56 PM 72.7 °F - 71.1 °F 95% 29.70 in 10.0 mi SSW 4.6 mph - 0.00 in   Scattered Clouds
11:56 PM 73.9 °F - 70.7 °F 90% 29.69 in 10.0 mi SSW 6.9 mph - N/A   Overcast